TimeCDT,TemperatureF,Dew PointF,Humidity,Sea Level PressureIn,VisibilityMPH,Wind Direction,Wind SpeedMPH,Gust SpeedMPH,PrecipitationIn,Events,Conditions,WindDirDegrees,DateUTC
12:52 AM,69.1,64.9,87,29.94,8.0,South,8.1,-,N/A,,Scattered Clouds,170,2013-09-19 05:52:00
1:52 AM,69.1,66.9,93,29.94,7.0,South,11.5,-,N/A,,Overcast,180,2013-09-19 06:52:00
2:52 AM,69.1,66.9,93,29.94,5.0,South,8.1,-,N/A,,Partly Cloudy,180,2013-09-19 07:52:00
3:52 AM,69.1,66.9,93,29.92,4.0,South,9.2,-,N/A,,Clear,180,2013-09-19 08:52:00
4:32 AM,69.8,66.2,88,29.92,3.0,South,6.9,-,N/A,,Partly Cloudy,170,2013-09-19 09:32:00
4:52 AM,68.0,66.9,96,29.91,2.5,SSE,8.1,-,N/A,,Scattered Clouds,160,2013-09-19 09:52:00
4:54 AM,68.0,66.2,94,29.92,3.0,SSE,6.9,-,N/A,,Mostly Cloudy,160,2013-09-19 09:54:00
5:01 AM,68.0,66.2,94,29.92,2.5,SSE,6.9,-,N/A,,Mostly Cloudy,160,2013-09-19 10:01:00
5:25 AM,69.8,66.2,88,29.93,2.5,SSE,6.9,-,N/A,,Overcast,160,2013-09-19 10:25:00
5:39 AM,69.8,68.0,94,29.93,3.0,SSE,4.6,-,N/A,,Mostly Cloudy,160,2013-09-19 10:39:00
5:52 AM,69.1,68.0,96,29.92,3.0,SSE,8.1,-,N/A,,Mostly Cloudy,150,2013-09-19 10:52:00
6:10 AM,69.8,68.0,94,29.93,3.0,SSE,6.9,-,N/A,,Overcast,160,2013-09-19 11:10:00
6:17 AM,69.8,68.0,94,29.93,3.0,SSE,9.2,-,N/A,,Mostly Cloudy,160,2013-09-19 11:17:00
6:24 AM,69.8,68.0,94,29.93,3.0,SSE,8.1,-,N/A,,Mostly Cloudy,160,2013-09-19 11:24:00
6:52 AM,70.0,68.0,93,29.94,4.0,South,3.5,-,N/A,,Mostly Cloudy,180,2013-09-19 11:52:00
7:08 AM,69.8,68.0,94,29.94,3.0,NE,4.6,-,N/A,,Overcast,50,2013-09-19 12:08:00
7:16 AM,69.8,68.0,94,29.95,2.5,ESE,3.5,-,N/A,,Overcast,120,2013-09-19 12:16:00
7:44 AM,69.8,68.0,94,29.95,3.0,SSE,5.8,-,N/A,,Overcast,150,2013-09-19 12:44:00
7:52 AM,70.0,68.0,93,29.94,3.0,SSE,5.8,-,N/A,,Overcast,160,2013-09-19 12:52:00
8:09 AM,69.8,69.8,100,29.94,3.0,SSE,4.6,-,N/A,,Mostly Cloudy,150,2013-09-19 13:09:00
8:30 AM,71.6,69.8,94,29.94,3.0,SE,3.5,-,N/A,,Overcast,140,2013-09-19 13:30:00
8:52 AM,71.1,69.1,93,29.94,3.0,SSE,3.5,-,0.01,Rain,Light Rain,150,2013-09-19 13:52:00
9:52 AM,72.0,69.1,91,29.94,4.0,SE,3.5,-,0.02,,Overcast,140,2013-09-19 14:52:00
10:44 AM,73.4,69.8,88,29.95,5.0,SE,5.8,-,0.00,,Mostly Cloudy,140,2013-09-19 15:44:00
10:52 AM,73.9,70.0,87,29.93,5.0,SSE,8.1,-,0.00,,Mostly Cloudy,150,2013-09-19 15:52:00
11:52 AM,78.1,71.1,79,29.92,5.0,South,8.1,-,N/A,,Haze,170,2013-09-19 16:52:00
12:52 PM,81.0,72.0,74,29.89,6.0,SSE,9.2,-,N/A,,Haze,160,2013-09-19 17:52:00
1:52 PM,84.0,73.0,69,29.87,6.0,SSE,10.4,-,N/A,,Haze,150,2013-09-19 18:52:00
2:52 PM,88.0,72.0,59,29.84,9.0,South,11.5,-,N/A,,Clear,170,2013-09-19 19:52:00
3:52 PM,88.0,70.0,55,29.81,10.0,South,10.4,-,N/A,,Partly Cloudy,190,2013-09-19 20:52:00
4:52 PM,89.1,68.0,50,29.78,10.0,SSW,11.5,-,N/A,,Clear,200,2013-09-19 21:52:00
5:52 PM,84.9,68.0,57,29.77,10.0,South,9.2,-,N/A,,Clear,190,2013-09-19 22:52:00
6:52 PM,82.9,66.9,58,29.78,10.0,South,12.7,-,N/A,,Clear,190,2013-09-19 23:52:00
7:52 PM,80.1,66.9,64,29.79,10.0,South,6.9,-,N/A,,Clear,190,2013-09-20 00:52:00
8:52 PM,79.0,68.0,69,29.79,10.0,SSW,9.2,-,N/A,,Clear,200,2013-09-20 01:52:00
9:52 PM,75.9,69.1,79,29.78,9.0,South,8.1,-,N/A,,Partly Cloudy,180,2013-09-20 02:52:00
10:52 PM,77.0,63.0,62,29.81,10.0,WSW,11.5,-,N/A,,Partly Cloudy,250,2013-09-20 03:52:00
11:52 PM,72.0,62.1,71,29.81,10.0,SSW,5.8,-,N/A,,Partly Cloudy,210,2013-09-20 04:52:00